Regional Weather Roundup
Issued by NWS

Home | Current Version | Previous Version | Text Only | Print | Product List | Glossary Off
Versions: 1 2 3 4 5 6 7 8 9 10 11 12 13 14 15 16 17 18 19 20 21 22 23 24 25 26 27 28 29 30 31 32 33 34 35 36 37 38 39 40 41 42 43 44 45 46 47 48 49 50

000
ASUS43 KIND 190109
RWRIN

WEATHER ROUNDUP FOR INDIANA
NATIONAL WEATHER SERVICE INDIANAPOLIS IN
900 PM EDT THU SEP 18 2014

NOTE: "FAIR" INDICATES FEW OR NO CLOUDS BELOW 12,000 FEET WITH NO
SIGNIFICANT WEATHER AND/OR OBSTRUCTIONS TO VISIBILITY.

* - STATION DOES NOT REPORT WEATHER SUCH AS PRECIPITATION OR FOG.

+ - STATION NOT QUALITY CONTROLLED BY THE NATIONAL WEATHER SERVICE.
    USE DATA WITH CAUTION...ESPECIALLY DEWPOINT AND RELATIVE
    HUMIDITY OBSERVATIONS.

INZ001>003-010>013-019-020-190200-
NORTHWEST INDIANA

CITY           SKY/WX    TMP DP  RH WIND       PRES   REMARKS
GARY /AIRPORT/ PTCLDY    61  57  88 N7        30.13R
KNOX *+        CLEAR     56  51  81 N5        30.12R
LA PORTE +     CLEAR     56  53  86 N5        30.14R
MICHIGAN CITY+ CLEAR     55  54  94 CALM      30.14R
MONTICELLO +   CLEAR     61  50  65 E3        30.10R
RENSSELAER +   CLEAR     57  54  88 NE5       30.11R
VALPARAISO     CLEAR     57  53  86 N3        30.13R

$$

LMZ046-743>745-190200-
SOUTHERN LAKE MICHIGAN

STATION/POSITION TIME  TEMP WIND        PRES
                       AIR  DIR/SP/G
                 (UTC) (F)  (DEG/KT/KT) (MB)
MICHIGAN CITY    0100   63   20/ 11/ 13   N/A

$$

INZ004-005-014>016-021>024-190200-
NORTH CENTRAL INDIANA

CITY           SKY/WX    TMP DP  RH WIND       PRES   REMARKS
ELKHART        CLEAR     63  50  63 CALM      30.14R
GOSHEN         CLEAR     59  51  75 E6        30.13R
LOGANSPORT +   CLEAR     57  46  67 CALM      30.12R
PERU/GRISSOM   CLEAR     59  55  88 NE6       30.11R
ROCHESTER +    CLEAR     59  52  77 CALM      30.13R
SOUTH BEND     CLEAR     63  51  65 NE3       30.14R
WARSAW +       CLEAR     55  50  82 CALM      30.13R

$$

INZ006>009-017-018-025>027-190200-
NORTHEAST INDIANA

CITY           SKY/WX    TMP DP  RH WIND       PRES   REMARKS
ANGOLA *+      CLEAR     55  52  88 CALM      30.14R
AUBURN +       MOCLDY    59  50  72 NE3       30.15R
FORT WAYNE     PTCLDY    59  50  72 NE3       30.13R
HUNTINGTON +   CLEAR     55  51  86 CALM      30.12R

$$

INZ028-029-035-036-043>045-051>053-190200-
WEST CENTRAL INDIANA

CITY           SKY/WX    TMP DP  RH WIND       PRES   REMARKS
GREENCASTLE +  CLEAR     59  52  77 CALM      30.09R
LAFAYETTE      CLEAR     60  50  69 NE6       30.09R
TERRE HAUTE    CLEAR     57  52  83 CALM      30.07R

$$

INZ030>032-037>040-046>048-054>057-064-065-190200-
CENTRAL INDIANA

CITY           SKY/WX    TMP DP  RH WIND       PRES   REMARKS
CP ATTERBURY + CLEAR     55  52  88 CALM      30.09R
COLUMBUS       CLEAR     57  50  77 CALM      30.08R
FRANKFORT +    CLEAR     58  51  77 E3        30.11R
GREENWOOD *+   CLEAR     63  50  63 NE3       30.09R
INDIANAPOLIS   CLEAR     64  47  53 NE6       30.08R
-EAGLE CREEK   CLEAR     61  49  64 CALM      30.09R
KOKOMO *+      CLEAR     55  48  76 E6        30.11R
MARION +       CLEAR     54  49  83 CALM      30.12R
MT COMFORT *+  CLEAR     55  48  76 NE5       30.10R
SHELBYVILLE    CLEAR     59  50  72 E6        30.09R
ZIONSVILLE +   CLEAR     55  49  81 NE5       30.11R

$$

INZ033-034-041-042-049-050-058-059-190200-
EAST CENTRAL INDIANA

CITY           SKY/WX    TMP DP  RH WIND       PRES   REMARKS
MUNCIE         CLEAR     57  48  72 E5        30.11R

$$

INZ060-061-067>069-081>083-085>088-190200-
SOUTHWEST INDIANA

CITY           SKY/WX    TMP DP  RH WIND       PRES   REMARKS
EVANSVILLE     CLEAR     64  53  67 NE7       30.05R
WASHINGTON +   CLEAR     56  53  91 CALM      30.05R

$$

INZ062-063-066-070>080-084-089>092-190200-
SOUTH CENTRAL AND SOUTHEAST INDIANA

CITY           SKY/WX    TMP DP  RH WIND       PRES   REMARKS
BLOOMINGTON    CLEAR     54  52  93 CALM      30.07R
SEYMOUR +      CLEAR     59  52  77 E5        30.07

$$



USA.gov is the U.S. government's official web portal to all federal, state and local government web resources and services.